Flag for U.S.A. Weather past 2 weeks in Freehold, New Jersey, U.S.A.

Now
72 °F

More clouds than sun.


Feels Like: 77 °F
Forecast: 64 / 78 °F
Wind: 3 mph from Northeast

Location: Belmar-Farmdale

Current Time: Jul 4, 2015 at 7:38:00 PM

Latest Report: Jul 4, 2015 at 7:15 PM


Visibility: 10 mi

Pressure: 29.97 "Hg

Humidity: 53%

Dew point: 54 °F

Location of FreeholdLocation

Historic Weather in Freehold — Graph

°F

Freehold temperature yesterday

Maximum temperature yesterday: 79 °F (at 11:55 AM)
Minimum temperature yesterday: 63 °F (at 3:35 AM)
Average temperature yesterday: 70 °F

Past Weeks' High & Low Weather Summary

 TemperatureHumidityPressure
High91 °F (Jun 23, 2:55 PM)94% (Jun 21, 6:15 AM)30.12 "Hg (Jun 21, 6:15 AM)
Low61 °F (Jun 25, 3:35 AM)37% (Jun 24, 4:15 PM)29.63 "Hg (Jun 28, 4:55 AM)
Average73 °F67%29.92 "Hg
* Reported Jun 19 6:15 PM — Jul 4 6:35 PM, Freehold, Weather by CustomWeather, © 2015

Note: Actual official high and low records may vary slightly from our data, if they occured in-between our weather recording intervals... More about our weather records

Advertising

Freehold weather history for previous 24 hours

 ConditionsComfort  
Time TempWeatherWind HumidityBarometerVisibility
6:35 PM
Sat, Jul 4
72 °FOvercast.6 mph53%29.95 "Hg10 mi
6:15 PM72 °FOvercast.6 mph53%29.95 "Hg10 mi
5:55 PM73 °FOvercast.7 mph53%29.95 "Hg10 mi
5:35 PM73 °FOvercast.6 mph53%29.95 "Hg10 mi
5:15 PM73 °FPartly sunny.7 mph53%29.95 "Hg10 mi
4:55 PM73 °FPassing clouds.9 mph50%29.94 "Hg10 mi
4:35 PM73 °FScattered clouds.8 mph50%29.94 "Hg10 mi
4:15 PM72 °FScattered clouds.9 mph53%29.94 "Hg10 mi
3:55 PM72 °FSunny.10 mph53%29.94 "Hg10 mi
3:35 PM72 °FScattered clouds.14 mph57%29.94 "Hg10 mi
3:15 PM72 °FBroken clouds.7 mph61%29.95 "Hg10 mi
2:55 PM72 °FBroken clouds.8 mph61%29.94 "Hg10 mi
2:35 PM72 °FMore clouds than sun.9 mph61%29.94 "Hg10 mi
2:15 PM73 °FOvercast.7 mph50%29.94 "Hg10 mi
1:55 PM73 °FOvercast.8 mph47%29.95 "Hg10 mi
1:35 PM75 °FOvercast.9 mph39%29.96 "Hg10 mi
1:15 PM75 °FPartly sunny.10 mph44%29.96 "Hg10 mi
12:55 PM75 °FPartly sunny.9 mph44%29.95 "Hg10 mi
12:35 PM75 °FPartly sunny.10 mph47%29.94 "Hg10 mi
12:15 PM77 °FOvercast.12 mph44%29.94 "Hg10 mi
11:55 AM75 °FOvercast.10 mph47%29.94 "Hg10 mi
11:35 AM75 °FMostly cloudy.8 mph50%29.94 "Hg10 mi
11:15 AM75 °FPartly sunny.9 mph54%29.94 "Hg10 mi
10:55 AM75 °FPartly sunny.10 mph54%29.94 "Hg10 mi
10:35 AM75 °FPartly sunny.13 mph54%29.93 "Hg10 mi
10:15 AM73 °FPartly sunny.13 mph61%29.93 "Hg10 mi
9:55 AM73 °FScattered clouds.10 mph65%29.94 "Hg10 mi
9:35 AM72 °FBroken clouds.9 mph69%29.93 "Hg10 mi
9:15 AM72 °FMostly cloudy.12 mph73%29.93 "Hg10 mi
8:55 AM72 °FOvercast.7 mph73%29.93 "Hg10 mi
8:35 AM72 °FMostly cloudy.12 mph73%29.93 "Hg10 mi
8:15 AM70 °FOvercast.8 mph73%29.93 "Hg10 mi
7:55 AM70 °FOvercast.7 mph73%29.93 "Hg10 mi
7:35 AM70 °FOvercast.6 mph78%29.93 "Hg10 mi
7:15 AM70 °FOvercast.6 mph78%29.93 "Hg10 mi
6:55 AM70 °FPartly sunny.5 mph73%29.94 "Hg10 mi
6:35 AM70 °FPartly sunny.3 mph73%29.94 "Hg10 mi
6:15 AM68 °FPassing clouds.5 mph78%29.94 "Hg10 mi
5:55 AM68 °FPassing clouds.3 mph78%29.94 "Hg10 mi
5:35 AM68 °FPassing clouds.5 mph78%29.93 "Hg10 mi
5:15 AM68 °FClear.5 mph78%29.94 "Hg10 mi
4:55 AM68 °FClear.5 mph78%29.95 "Hg10 mi
4:35 AM68 °FPassing clouds.3 mph78%29.95 "Hg10 mi
4:15 AM68 °FPassing clouds.5 mph78%29.96 "Hg10 mi
3:55 AM68 °FClear.5 mph78%29.96 "Hg10 mi
3:35 AM68 °FClear.No wind78%29.96 "Hg10 mi
3:15 AM68 °FClear.No wind78%29.96 "Hg10 mi
2:55 AM68 °FClear.No wind83%29.96 "Hg10 mi
2:35 AM68 °FPassing clouds.No wind83%29.97 "Hg10 mi
2:15 AM68 °FClear.3 mph83%29.97 "Hg10 mi
1:55 AM68 °FClear.No wind78%29.97 "Hg10 mi
1:35 AM70 °FPassing clouds.No wind73%29.97 "Hg10 mi
1:15 AM70 °FPassing clouds.5 mph73%29.98 "Hg10 mi
12:55 AM68 °FClear.5 mph78%29.98 "Hg10 mi
12:35 AM68 °FClear.3 mph73%29.98 "Hg10 mi
12:15 AM68 °FClear.3 mph69%29.98 "Hg10 mi
11:35 PM
Fri, Jul 3
68 °FClear.No wind69%29.98 "Hg10 mi
11:15 PM68 °FClear.No wind69%29.98 "Hg10 mi
10:55 PM70 °FClear.No wind64%29.98 "Hg10 mi
10:35 PM70 °FClear.No wind64%29.98 "Hg10 mi
10:15 PM70 °FClear.3 mph60%29.98 "Hg10 mi
9:55 PM70 °FClear.No wind64%29.98 "Hg10 mi
9:35 PM70 °FClear.No wind64%29.98 "Hg10 mi
9:15 PM70 °FSunny.3 mph64%29.98 "Hg10 mi
8:55 PM70 °FSunny.5 mph64%29.97 "Hg10 mi
8:35 PM70 °FSunny.3 mph64%29.97 "Hg10 mi
8:15 PM70 °FSunny.5 mph64%29.97 "Hg10 mi
7:55 PM72 °FSunny.5 mph61%29.97 "Hg10 mi
7:35 PM72 °FSunny.5 mph65%29.98 "Hg10 mi
7:15 PM72 °FSunny.5 mph65%29.97 "Hg10 mi
Weather by CustomWeather, © 2015

See weather overviewHow to use our weather pages